Location: eljas
(40.1958°N, 6.8661°W)
Time: 23:23:35
(UTC+02:00)

Amateur Radio Satellites - All Passes

Search period start: 22 July 2014 22:53
Search period end: 23 July 2014 22:53
Location: eljas, 40.1958°N, 6.8661°W

Satellite Date Start Highest point End Downlink Frequencies (MHz)
Time Altitude Azimuth
Oscar 11 22 Jul 23:32:01 23:36:19 81° 258° (WSW) 23:40:39 145.825 FM, Beacon 2401.500 USB
RS-15 22 Jul 23:33:31 23:43:10 33° 36° (NE) 23:53:01 29.354 - 29.394 USB, Beacon 29.352 USB
FUNcube-1 22 Jul 23:33:42 23:37:45 37° 72° (ENE) 23:41:44 145.950 - 145.970 MHz USB
MaSat-1 22 Jul 23:40:45 23:43:25 18° 101° (E) 23:46:22 437.345 MHz
HO-68 22 Jul 23:54:38 00:00:41 29° 265° (W) 00:06:47 435.675 MHz FM
SO-50 23 Jul 00:24:32 00:29:05 44° 52° (NE) 00:33:41 436.795 FM
FUNcube-1 23 Jul 01:11:08 01:14:15 19° 266° (W) 01:17:20 145.950 - 145.970 MHz USB
MaSat-1 23 Jul 01:16:44 01:20:21 36° 303° (WNW) 01:24:34 437.345 MHz
UOSAT-12 23 Jul 01:25:39 01:28:50 18° 42° (NE) 01:31:59 437.025 FM, 437.400 FM
Lituanica SAT-1 23 Jul 01:31:04 01:32:16 14° 133° (SE) 01:33:29 437.275 MHz beacon
RS-15 23 Jul 01:45:46 01:56:50 83° 241° (WSW) 02:08:20 29.354 - 29.394 USB, Beacon 29.352 USB
Oscar 10/S400 23 Jul 01:57:08 02:24:36 66° 174° (S) 11:36:31 145.825 - 145.975 CW/USB, Beacon 145.810 USB
SO-50 23 Jul 02:05:44 02:09:23 22° 249° (WSW) 02:13:03 436.795 FM
Sapphire 23 Jul 03:02:00 03:06:09 23° 107° (ESE) 03:10:20 437.095 MHz 1200 baud AX-25 AFSK
Lituanica SAT-1 23 Jul 03:03:08 03:05:04 27° 329° (NNW) 03:07:01 437.275 MHz beacon
UOSAT-12 23 Jul 03:04:47 03:09:30 71° 240° (WSW) 03:14:08 437.025 FM, 437.400 FM
AO-Echo 23 Jul 03:15:22 03:16:25 11° 88° (E) 03:17:27 ?
ISS 23 Jul 03:30:55 03:34:10 51° 138° (SE) 03:37:27 145.800 FM
PCSat 23 Jul 03:34:54 03:40:04 49° 113° (ESE) 03:45:17 145.825 MHz
Oscar 19 23 Jul 03:39:38 03:44:33 43° 99° (E) 03:49:26 437.125 CW, 437.150 USB
JAS-1B 23 Jul 03:47:53 03:55:01 23° 86° (E) 04:01:30 435.800 - 435.900 CW/SSB
RS-15 23 Jul 04:00:36 04:07:31 19° 261° (W) 04:14:36 29.354 - 29.394 USB, Beacon 29.352 USB
Oscar 16 23 Jul 04:06:36 04:11:47 82° 103° (ESE) 04:16:57 437.025 USB, Beacon 2401.1428
ITAMSAT 1 23 Jul 04:13:09 04:18:03 41° 98° (E) 04:22:53 435.822 SSB
Gurwin Techsat 1B 23 Jul 04:14:48 04:18:16 17° 92° (E) 04:21:42 435.225 FM
AO-40 23 Jul 04:21:15 05:58:18 23° 222° (SW) 09:07:52 Beacon 2401.320
AO-27 23 Jul 04:30:20 04:35:29 61° 101° (ESE) 04:40:35 436.795 MHz FM
Uribyol 2 23 Jul 04:34:15 04:39:25 69° 102° (ESE) 04:44:32 436.500 FM
OPAL 23 Jul 04:36:00 04:40:05 27° 64° (ENE) 04:44:11 ?
Sapphire 23 Jul 04:44:01 04:49:14 48° 304° (NW) 04:54:29 437.095 MHz 1200 baud AX-25 AFSK
AO-Echo 23 Jul 04:50:39 04:55:51 83° 285° (WNW) 05:00:51 ?
ISS 23 Jul 05:08:16 05:11:05 24° 336° (NNW) 05:13:54 145.800 FM
PCSat 23 Jul 05:19:17 05:23:44 26° 311° (NW) 05:28:13 145.825 MHz
Oscar 19 23 Jul 05:19:37 05:23:36 23° 295° (WNW) 05:27:35 437.125 CW, 437.150 USB
AO-7 23 Jul 05:24:00 05:29:09 17° 90° (E) 05:34:15 29.400 - 29.500 MHz
TMSAT-1 23 Jul 05:33:23 05:38:41 70° 102° (ESE) 05:43:57 436.925 FM
JAS-1B 23 Jul 05:36:49 05:46:35 81° 287° (WNW) 05:55:06 435.800 - 435.900 CW/SSB
Oscar 16 23 Jul 05:48:13 05:50:26 13° 300° (WNW) 05:52:38 437.025 USB, Beacon 2401.1428
ITAMSAT 1 23 Jul 05:53:10 05:57:17 24° 295° (WNW) 06:01:23 435.822 SSB
Gurwin Techsat 1B 23 Jul 05:53:22 05:58:35 57° 288° (WNW) 06:03:45 435.225 FM
AO-27 23 Jul 06:11:12 06:14:29 17° 298° (WNW) 06:17:45 436.795 MHz FM
OPAL 23 Jul 06:14:19 06:18:49 35° 260° (W) 06:23:21 ?
Uribyol 2 23 Jul 06:15:25 06:18:17 15° 299° (WNW) 06:21:09 436.500 FM
AO-Echo 23 Jul 06:32:48 06:33:42 10° 302° (WNW) 06:34:36 ?
Uosat F 23 Jul 06:41:31 06:46:33 71° 103° (ESE) 06:51:32 435.120 FM
ISS 23 Jul 06:47:20 06:48:45 12° 356° (N) 06:50:10 145.800 FM
STRAND 1 23 Jul 06:50:31 06:52:16 12° 59° (ENE) 06:54:02 ?
AO-7 23 Jul 07:14:32 07:22:55 90° 288° (WNW) 07:31:14 29.400 - 29.500 MHz
TMSAT-1 23 Jul 07:14:58 07:17:59 16° 299° (WNW) 07:21:00 436.925 FM
JAS-1B 23 Jul 07:28:50 07:35:26 21° 308° (NW) 07:41:39 435.800 - 435.900 CW/SSB
Lituanica SAT-1 23 Jul 07:44:41 07:46:16 17° 26° (NNE) 07:47:51 437.275 MHz beacon
JAS-2 23 Jul 07:57:59 08:03:13 28° 92° (E) 08:07:57 435.800 - 435.900 CW/SSB, 435.910 FM
KITSAT 1 23 Jul 08:04:04 08:10:35 28° 105° (ESE) 08:17:06 435.175 FM
Uosat F 23 Jul 08:22:07 08:24:43 14° 299° (WNW) 08:27:19 435.120 FM
ISS 23 Jul 08:24:19 08:26:34 16° 17° (NNE) 08:28:49 145.800 FM
STRAND 1 23 Jul 08:25:31 08:30:41 90° 256° (WSW) 08:35:52 ?
Hamsat 23 Jul 08:43:06 08:47:22 73° 284° (WNW) 08:51:39 145.90 MHz
SO-67 23 Jul 09:02:27 09:05:21 24° 96° (E) 09:08:14 435.3500 MHz FM
AO-7 23 Jul 09:08:52 09:14:37 21° 308° (NW) 09:20:22 29.400 - 29.500 MHz
Lituanica SAT-1 23 Jul 09:17:17 09:19:15 28° 223° (SW) 09:21:13 437.275 MHz beacon
MaSat-1 23 Jul 09:34:58 09:40:09 49° 60° (ENE) 09:45:10 437.345 MHz
PANSAT 23 Jul 09:39:27 09:39:58 10° 167° (SSE) 09:40:28 not established
JAS-2 23 Jul 09:42:37 09:48:29 41° 293° (WNW) 09:53:44 435.800 - 435.900 CW/SSB, 435.910 FM
Saudisat 1A 23 Jul 09:43:23 09:45:09 12° 108° (ESE) 09:46:55 436.775 MHz
KITSAT 1 23 Jul 09:57:19 10:05:21 65° 304° (NW) 10:13:26 435.175 FM
ISS 23 Jul 10:00:28 10:03:49 66° 35° (NE) 10:07:09 145.800 FM
SO-67 23 Jul 10:35:51 10:38:15 18° 291° (WNW) 10:40:38 435.3500 MHz FM
MaSat-1 23 Jul 11:13:09 11:17:10 22° 257° (WSW) 11:21:04 437.345 MHz
PANSAT 23 Jul 11:17:17 11:19:24 14° 180° (S) 11:21:31 not established
Saudisat 1A 23 Jul 11:19:46 11:24:10 67° 304° (NW) 11:28:35 436.775 MHz
Oscar 11 23 Jul 11:21:08 11:24:13 19° 93° (E) 11:27:18 145.825 FM, Beacon 2401.500 USB
HO-68 23 Jul 11:21:26 11:28:28 57° 102° (ESE) 11:35:26 435.675 MHz FM
ISS 23 Jul 11:38:26 11:40:10 14° 231° (SW) 11:41:54 145.800 FM
Sapphire 23 Jul 11:49:53 11:53:49 20° 46° (NE) 11:57:43 437.095 MHz 1200 baud AX-25 AFSK
KITSAT 1 23 Jul 11:57:04 12:02:28 19° 328° (NNW) 12:07:54 435.175 FM
PCSat 23 Jul 12:23:24 12:28:24 36° 53° (NE) 12:33:22 145.825 MHz
Oscar 11 23 Jul 12:56:33 13:00:30 36° 289° (WNW) 13:04:28 145.825 FM, Beacon 2401.500 USB
PANSAT 23 Jul 12:58:02 12:58:51 11° 193° (SSW) 12:59:39 not established
FUNcube-1 23 Jul 12:59:19 13:03:30 87° 103° (ESE) 13:07:41 145.950 - 145.970 MHz USB
Saudisat 1A 23 Jul 13:03:38 13:04:36 11° 323° (NW) 13:05:34 436.775 MHz
HO-68 23 Jul 13:09:52 13:15:43 28° 300° (WNW) 13:21:34 435.675 MHz FM
Sapphire 23 Jul 13:32:21 13:37:45 69° 245° (WSW) 13:43:07 437.095 MHz 1200 baud AX-25 AFSK
Oscar 16 23 Jul 13:46:54 13:49:30 14° 61° (ENE) 13:52:06 437.025 USB, Beacon 2401.1428
RS-15 23 Jul 14:03:53 14:08:33 14° 97° (E) 14:13:09 29.354 - 29.394 USB, Beacon 29.352 USB
PCSat 23 Jul 14:06:57 14:11:43 32° 251° (WSW) 14:16:27 145.825 MHz
AO-27 23 Jul 14:12:47 14:14:24 11° 58° (ENE) 14:16:02 436.795 MHz FM
Uribyol 2 23 Jul 14:15:48 14:18:01 13° 59° (ENE) 14:20:14 436.500 FM
AO-Echo 23 Jul 14:26:31 14:29:35 16° 61° (ENE) 14:32:41 ?
JAS-1B 23 Jul 14:31:44 14:37:52 21° 52° (NE) 14:44:26 435.800 - 435.900 CW/SSB
SO-50 23 Jul 14:41:08 14:43:38 15° 109° (ESE) 14:46:09 436.795 FM
Oscar 19 23 Jul 14:55:58 15:00:58 59° 73° (ENE) 15:06:00 437.125 CW, 437.150 USB
TMSAT-1 23 Jul 15:17:13 15:19:43 14° 60° (ENE) 15:22:12 436.925 FM
Oscar 16 23 Jul 15:23:06 15:28:13 74° 257° (WSW) 15:33:21 437.025 USB, Beacon 2401.1428
ITAMSAT 1 23 Jul 15:30:31 15:35:38 59° 72° (ENE) 15:40:46 435.822 SSB
Gurwin Techsat 1B 23 Jul 15:35:08 15:39:31 27° 66° (ENE) 15:43:55 435.225 FM
AO-27 23 Jul 15:47:52 15:53:06 87° 76° (ENE) 15:58:22 436.795 MHz FM
Uribyol 2 23 Jul 15:51:33 15:56:46 84° 256° (WSW) 16:02:00 436.500 FM
KITSAT 1 23 Jul 15:56:48 16:01:46 17° 30° (NNE) 16:06:43 435.175 FM
AO-Echo 23 Jul 16:02:29 16:07:43 70° 258° (WSW) 16:13:03 ?
RS-15 23 Jul 16:07:43 16:18:46 71° 116° (ESE) 16:29:36 29.354 - 29.394 USB, Beacon 29.352 USB
JAS-1B 23 Jul 16:18:22 16:26:45 82° 73° (ENE) 16:36:27 435.800 - 435.900 CW/SSB
SO-50 23 Jul 16:19:18 16:23:41 57° 305° (NW) 16:28:11 436.795 FM
Uosat F 23 Jul 16:19:33 16:21:10 12° 59° (ENE) 16:22:47 435.120 FM
AO-7 23 Jul 16:22:19 16:28:52 27° 55° (NE) 16:35:25 29.400 - 29.500 MHz
Oscar 19 23 Jul 16:37:40 16:40:42 16° 269° (W) 16:43:44 437.125 CW, 437.150 USB
TMSAT-1 23 Jul 16:53:36 16:58:55 81° 257° (WSW) 17:04:15 436.925 FM
ITAMSAT 1 23 Jul 17:12:16 17:15:29 16° 268° (W) 17:18:43 435.822 SSB
Gurwin Techsat 1B 23 Jul 17:14:23 17:19:17 38° 262° (W) 17:24:14 435.225 FM
UOSAT-12 23 Jul 17:15:29 17:19:44 39° 115° (ESE) 17:24:06 437.025 FM, 437.400 FM
AO-27 23 Jul 17:32:23 17:33:15 10° 271° (W) 17:34:07 436.795 MHz FM
KITSAT 1 23 Jul 17:51:10 17:59:08 57° 54° (NE) 18:07:01 435.175 FM
Uosat F 23 Jul 17:54:08 17:59:11 89° 256° (WSW) 18:04:17 435.120 FM
Saudisat 1A 23 Jul 18:09:23 18:11:11 12° 38° (NE) 18:12:58 436.775 MHz
JAS-2 23 Jul 18:09:48 18:14:29 18° 57° (ENE) 18:19:03 435.800 - 435.900 CW/SSB, 435.910 FM
JAS-1B 23 Jul 18:12:03 18:18:21 23° 274° (W) 18:25:19 435.800 - 435.900 CW/SSB
AO-7 23 Jul 18:12:32 18:20:53 74° 254° (WSW) 18:29:17 29.400 - 29.500 MHz
RS-15 23 Jul 18:21:56 18:31:56 38° 320° (NW) 18:41:55 29.354 - 29.394 USB, Beacon 29.352 USB
OPAL 23 Jul 18:23:56 18:28:56 61° 104° (ESE) 18:33:58 ?
UOSAT-12 23 Jul 18:56:08 19:00:01 26° 313° (NW) 19:03:57 437.025 FM, 437.400 FM
Hamsat 23 Jul 19:35:46 19:39:56 73° 76° (ENE) 19:44:07 145.90 MHz
Saudisat 1A 23 Jul 19:47:03 19:51:29 81° 58° (ENE) 19:55:52 436.775 MHz
KITSAT 1 23 Jul 19:47:12 19:54:05 32° 253° (WSW) 20:00:57 435.175 FM
JAS-2 23 Jul 19:50:35 19:58:27 80° 74° (ENE) 20:06:03 435.800 - 435.900 CW/SSB, 435.910 FM
OPAL 23 Jul 20:04:10 20:07:20 17° 300° (WNW) 20:10:31 ?
AO-7 23 Jul 20:11:41 20:14:57 13° 272° (W) 20:18:15 29.400 - 29.500 MHz
STRAND 1 23 Jul 20:37:10 20:41:43 32° 97° (E) 20:46:14 ?
RS-15 23 Jul 20:41:38 20:48:46 19° 354° (N) 20:55:56 29.354 - 29.394 USB, Beacon 29.352 USB
SO-67 23 Jul 21:07:23 21:10:47 56° 260° (W) 21:14:13 435.3500 MHz FM
JAS-2 23 Jul 21:38:30 21:44:02 21° 270° (W) 21:49:29 435.800 - 435.900 CW/SSB, 435.910 FM
HO-68 23 Jul 21:49:25 21:55:59 41° 65° (ENE) 22:02:34 435.675 MHz FM
STRAND 1 23 Jul 22:16:25 22:20:49 30° 293° (WNW) 22:25:12 ?
Oscar 11 23 Jul 22:16:38 22:19:05 15° 65° (ENE) 22:21:32 145.825 FM, Beacon 2401.500 USB
